#timestamp,LO_Frequency,Hit,StdDev 
1587366015.3,286046993.7,P
1587366035.1,286046995.6,N
1587366055.9,286046993.7,Y
1587366075.7,286046997.0,P
1587366095.6,286046998.5,N
1587366115.4,286046998.9,N
1587366135.3,286046999.0,N
1587366155.1,286047000.7,N
1587366156.0,286047000.7,N
1587366175.8,286046999.7,N
1587366195.7,286047000.0,N
1587366215.5,286047001.5,N
1587366235.4,286047003.9,N
1587366255.2,286047004.2,N
1587366275.0,286047003.9,N
1587366275.9,286047003.9,N
1587366295.8,286047004.2,N
1587366315.6,286047005.1,N
1587366335.5,286047004.1,N
1587366355.3,286047002.1,N
1587366375.1,286047002.4,N
1587366395.9,286047002.5,N
1587366415.7,286046999.8,N
1587366435.5,286046999.7,N
1587366455.4,286047001.9,N
1587366475.2,286047002.2,N
1587366495.1,286046999.7,N
1587366496.0,286046999.7,N
1587366515.8,286047003.9,N
1587366535.6,286047004.7,N
1587366555.5,286047003.8,N
1587366575.3,286047003.6,N
1587366595.1,286047005.9,N
1587366615.9,286047001.7,N
1587366635.7,286047001.3,N
1587366655.6,286047002.6,N
1587366675.4,286047001.6,N
1587366695.2,286047002.9,N
1587366715.1,286047004.0,N
1587366716.0,286047004.0,N
1587366735.8,286047002.3,N
1587366755.7,286047002.5,N
1587366775.5,286047004.2,N
1587366795.3,286047004.1,N
1587366815.2,286047005.2,Y
1587366835.0,286047001.7,P
1587366835.9,286047001.7,P
1587366855.8,286047002.8,P
1587366875.6,286047002.0,Y
1587366895.4,286046998.4,P
1587366915.3,286046996.7,N
1587366935.1,286046995.1,N
1587366955.8,286046997.6,N
1587366975.7,286046997.4,N
1587366995.5,286046997.4,N
1587367015.4,286046997.2,N
1587367035.2,286046997.3,N
1587367055.0,286046999.6,N
1587367055.9,286046999.6,N
1587367075.1,286046996.7,N
1587367106.0,286046996.6,E
1587367115.0,286047000.7,N
1587367115.9,286047000.7,P
1587367135.8,286047001.5,P
1587367155.6,286047002.4,Y
1587367175.5,286047001.1,P
1587367195.3,286046999.9,N
1587367215.1,286047002.8,P
1587367235.9,286047002.3,N
1587367255.7,286046999.8,N
1587367275.5,286047003.1,N
1587367295.4,286047003.9,Y
1587367315.2,286047004.4,P
1587367335.1,286046999.9,N
1587367336.0,286046999.9,N
1587367355.8,286047002.3,N
1587367375.7,286047002.3,N
1587367395.5,286046999.0,N
1587367415.3,286046998.3,N
1587367435.2,286046999.7,N
1587367455.9,286047002.6,N
1587367475.7,286047003.6,N
1587367495.6,286047004.4,N
1587367515.4,286047001.3,N
1587367535.3,286046999.9,N
1587367555.1,286047002.4,N
1587367556.0,286047002.4,N
1587367575.8,286046998.4,N
1587367595.7,286046999.0,N
1587367615.5,286047000.5,N
1587367635.3,286047001.0,N
1587367655.2,286046998.6,N
1587367675.0,286047002.7,N
1587367675.9,286047002.7,N
1587367695.8,286047002.4,N
1587367715.6,286047002.0,N
1587367735.4,286047001.3,N
1587367755.3,286047001.7,N
1587367775.1,286047001.6,N
1587367795.9,286047001.4,N
1587367815.7,286047002.2,N
1587367835.5,286047000.8,N
1587367855.4,286046998.6,N
1587367875.2,286047002.6,N
1587367895.1,286047002.8,N
1587367896.0,286047002.8,N
1587367915.8,286047000.8,N
1587367935.6,286047002.4,N
1587367955.5,286046999.8,N
1587367975.3,286046999.9,N
1587367995.2,286047002.5,N
1587368015.9,286047001.1,N
1587368035.7,286046999.7,N
1587368055.6,286047001.9,N
1587368075.4,286047002.6,N
1587368095.3,286047004.4,Y
1587368115.1,286047002.6,P
1587368116.0,286047002.6,P
1587368135.8,286046999.9,N
1587368155.7,286047002.7,N
1587368175.5,286047000.3,N
1587368195.3,286046998.7,N
1587368215.2,286047001.2,N
1587368235.0,286046997.0,N
1587368235.9,286046997.0,N
1587368255.8,286046999.2,N
1587368275.6,286046999.5,N
1587368295.4,286047004.1,N
1587368315.3,286047002.9,N
1587368335.1,286047004.3,N
1587368355.9,286047000.1,N
1587368375.7,286047000.3,N
1587368395.5,286046998.2,N
1587368415.4,286046998.7,N
1587368435.2,286046999.3,N
1587368455.0,286046999.5,N
1587368455.9,286046999.5,N
1587368475.8,286046999.2,N
1587368495.6,286046998.6,N
1587368515.5,286047000.3,N
1587368535.3,286046998.1,N
1587368555.1,286046996.1,N
1587368575.9,286046997.0,N
1587368595.7,286046998.7,N
1587368615.6,286047001.2,N
1587368635.4,286047001.0,N
1587368655.2,286047000.2,N
1587368675.1,286046998.3,N
1587368676.0,286046998.3,N
1587368695.8,286046998.7,N
1587368715.6,286047002.8,N
1587368735.5,286047002.6,N
1587368755.3,286046998.1,N
1587368775.2,286046999.3,N
1587368795.9,286046998.6,N
1587368815.7,286046998.6,N
1587368835.6,286047000.9,N
1587368855.4,286046999.9,N
1587368875.3,286047001.0,N
1587368895.1,286047000.6,N
1587368896.0,286047000.6,N
1587368915.8,286047000.3,N
1587368935.7,286047000.1,N
1587368955.5,286047001.8,N
1587368975.3,286047002.9,N
1587368995.2,286047001.6,N
1587369015.0,286047004.3,N
1587369015.9,286047004.3,N
1587369035.8,286047005.6,N
1587369055.6,286047007.4,Y
1587369075.4,286047003.1,P
1587369095.3,286047002.3,N
1587369115.1,286047000.4,N
1587369135.9,286047000.1,N
1587369155.7,286047001.9,N
1587369175.5,286047001.8,N
1587369195.4,286047003.2,Y
1587369215.2,286047000.4,P
1587369235.1,286046999.7,N
1587369236.0,286046999.7,N
1587369255.8,286047001.0,N
1587369275.6,286047000.0,N
1587369295.5,286046999.8,N
1587369315.3,286047002.6,Y
1587369335.2,286047002.2,P
1587369355.9,286047004.4,P
1587369375.7,286047003.1,N
1587369395.6,286047002.9,N
1587369415.4,286047006.0,Y
1587369435.3,286047002.8,P
1587369455.1,286046998.2,P
1587369456.0,286046998.2,N
1587369475.8,286046999.5,N
1587369495.7,286046996.6,N
1587369515.5,286046998.7,N
1587369535.3,286046998.4,N
1587369555.2,286046999.5,N
1587369575.0,286046994.9,N
1587369575.9,286046994.9,N
1587369595.8,286046996.6,N
